Time,TemperatureF,DewpointF,PressureIn,WindDirection,WindDirectionDegrees,WindSpeedMPH,WindSpeedGustMPH,Humidity,HourlyPrecipIn,Conditions,Clouds,dailyrainin,SoftwareType,DateUTC
2013-09-15 00:02:00,-999.0,-99.9,30.10,SE,132,0.0,0.0,-999,-99.99,,,-99.99,,2013-09-15 04:02:00,
2013-09-15 02:12:00,43.0,41.0,30.09,SE,132,0.0,0.0,93,0.00,,,0.00,,2013-09-15 06:12:00,
2013-09-15 02:21:00,44.0,42.0,30.10,SE,133,0.0,1.0,94,0.00,,,0.00,,2013-09-15 06:21:00,
2013-09-15 02:42:00,44.0,42.0,30.10,SE,133,0.0,0.0,92,0.00,,,0.00,,2013-09-15 06:42:00,
2013-09-15 02:52:00,43.0,41.0,30.09,SE,133,0.0,0.0,92,0.00,,,0.00,,2013-09-15 06:52:00,
2013-09-15 03:11:00,43.0,41.0,30.10,SE,133,0.0,0.0,94,0.00,,,0.00,,2013-09-15 07:11:00,
2013-09-15 03:22:00,43.0,41.0,30.10,SE,133,0.0,0.0,94,0.00,,,0.00,,2013-09-15 07:22:00,
2013-09-15 03:42:00,43.0,41.0,30.10,SE,133,0.0,0.0,93,0.00,,,0.00,,2013-09-15 07:42:00,
2013-09-15 03:52:00,44.0,42.0,30.10,SE,133,0.0,0.0,93,0.00,,,0.00,,2013-09-15 07:52:00,
2013-09-15 04:11:00,43.0,41.0,30.10,SE,133,0.0,0.0,93,0.00,,,0.00,,2013-09-15 08:11:00,
2013-09-15 04:22:00,43.0,41.0,30.10,SE,133,0.0,0.0,92,0.00,,,0.00,,2013-09-15 08:22:00,
2013-09-15 04:43:00,43.0,41.0,30.11,SE,133,0.0,0.0,92,0.00,,,0.00,,2013-09-15 08:43:00,
2013-09-15 04:52:00,42.0,40.0,30.11,SE,133,0.0,0.0,91,0.00,,,0.00,,2013-09-15 08:52:00,
2013-09-15 05:12:00,42.0,40.0,30.10,SE,133,0.0,0.0,93,0.00,,,0.00,,2013-09-15 09:12:00,
2013-09-15 05:22:00,42.0,40.0,30.10,SE,133,0.0,0.0,93,0.00,,,0.00,,2013-09-15 09:22:00,
2013-09-15 05:43:00,42.0,40.0,30.10,SE,133,0.0,0.0,94,0.00,,,0.00,,2013-09-15 09:43:00,
2013-09-15 05:53:00,42.0,40.0,30.10,SE,133,0.0,0.0,94,0.00,,,0.00,,2013-09-15 09:53:00,
2013-09-15 06:13:00,42.0,40.0,30.10,SE,133,0.0,0.0,94,0.00,,,0.00,,2013-09-15 10:13:00,
2013-09-15 06:23:00,42.0,40.0,30.10,SE,133,0.0,0.0,94,0.00,,,0.00,,2013-09-15 10:23:00,
2013-09-15 06:43:00,42.0,40.0,30.10,SE,133,0.0,0.0,94,0.00,,,0.00,,2013-09-15 10:43:00,
2013-09-15 06:52:00,41.0,39.0,30.11,SE,133,0.0,0.0,94,0.00,,,0.00,,2013-09-15 10:52:00,
2013-09-15 07:12:00,41.0,40.0,30.11,SE,133,0.0,0.0,95,0.00,,,0.00,,2013-09-15 11:12:00,
2013-09-15 07:22:00,42.0,41.0,30.11,SE,133,0.0,0.0,95,0.00,,,0.00,,2013-09-15 11:22:00,
2013-09-15 07:42:00,42.0,41.0,30.11,SE,133,0.0,0.0,95,0.00,,,0.00,,2013-09-15 11:42:00,
2013-09-15 07:52:00,42.0,41.0,30.11,SE,133,0.0,0.0,95,0.00,,,0.00,,2013-09-15 11:52:00,
2013-09-15 08:12:00,42.0,41.0,30.12,SE,133,0.0,0.0,95,0.00,,,0.00,,2013-09-15 12:12:00,
2013-09-15 08:21:00,42.0,41.0,30.13,SE,133,0.0,0.0,95,0.00,,,0.00,,2013-09-15 12:21:00,
2013-09-15 08:52:00,45.0,44.0,30.13,SE,133,0.0,0.0,97,0.00,,,0.00,,2013-09-15 12:52:00,
2013-09-15 09:11:00,46.0,45.0,30.13,SE,133,0.0,0.0,97,0.00,,,0.00,,2013-09-15 13:11:00,
2013-09-15 09:21:00,48.0,47.0,30.13,SE,133,0.0,0.0,97,0.00,,,0.00,,2013-09-15 13:21:00,
2013-09-15 09:52:00,52.0,50.0,30.13,SE,133,0.0,1.0,93,0.00,,,0.00,,2013-09-15 13:52:00,
2013-09-15 10:12:00,54.0,50.0,30.13,SSW,192,0.0,3.0,85,0.00,,,0.00,,2013-09-15 14:12:00,
2013-09-15 10:22:00,56.0,50.0,30.13,SW,221,0.0,3.0,81,0.00,,,0.00,,2013-09-15 14:22:00,
2013-09-15 15:22:00,75.0,51.0,30.04,South,185,3.0,6.0,43,0.00,,,0.00,,2013-09-15 19:22:00,
2013-09-15 15:52:00,74.0,49.0,30.03,SW,225,3.0,9.0,41,0.00,,,0.00,,2013-09-15 19:52:00,
2013-09-15 16:11:00,74.0,49.0,30.02,South,174,3.0,10.0,41,0.00,,,0.00,,2013-09-15 20:11:00,
2013-09-15 16:22:00,75.0,50.0,30.01,ESE,111,4.0,8.0,41,0.00,,,0.00,,2013-09-15 20:22:00,
2013-09-15 16:42:00,76.0,51.0,30.01,SW,218,1.0,9.0,41,0.00,,,0.00,,2013-09-15 20:42:00,
2013-09-15 16:53:00,74.0,48.0,30.01,SSW,194,3.0,7.0,40,0.00,,,0.00,,2013-09-15 20:53:00,
2013-09-15 17:11:00,74.0,49.0,30.01,SSE,157,4.0,11.0,42,0.00,,,0.00,,2013-09-15 21:11:00,
2013-09-15 17:21:00,74.0,50.0,30.01,SW,229,1.0,4.0,43,0.00,,,0.00,,2013-09-15 21:21:00,
2013-09-15 17:44:00,76.0,50.0,30.01,SE,146,2.0,7.0,40,0.00,,,0.00,,2013-09-15 21:44:00,
2013-09-15 17:54:00,74.0,50.0,30.01,SW,225,5.0,11.0,43,0.00,,,0.00,,2013-09-15 21:54:00,
2013-09-15 18:14:00,73.0,50.0,30.02,SW,223,2.0,9.0,45,0.00,,,0.00,,2013-09-15 22:14:00,
2013-09-15 18:23:00,73.0,50.0,30.02,SW,221,4.0,11.0,45,0.00,,,0.00,,2013-09-15 22:23:00,
2013-09-15 18:44:00,73.0,51.0,30.03,SSW,211,3.0,8.0,46,0.00,,,0.00,,2013-09-15 22:44:00,
2013-09-15 18:53:00,72.0,51.0,30.03,SW,223,1.0,8.0,48,0.00,,,0.00,,2013-09-15 22:53:00,
2013-09-15 19:12:00,72.0,52.0,30.02,SSW,213,0.0,4.0,49,0.00,,,0.00,,2013-09-15 23:12:00,
2013-09-15 19:22:00,71.0,52.0,30.03,SW,217,0.0,1.0,51,0.00,,,0.00,,2013-09-15 23:22:00,
2013-09-15 19:42:00,70.0,57.0,30.03,SW,217,0.0,1.0,63,0.00,,,0.00,,2013-09-15 23:42:00,
2013-09-15 19:52:00,68.0,55.0,30.04,SW,217,0.0,1.0,64,0.00,,,0.00,,2013-09-15 23:52:00,
2013-09-15 20:11:00,68.0,54.0,30.06,SW,218,0.0,2.0,61,0.00,,,0.00,,2013-09-16 00:11:00,
2013-09-15 20:22:00,64.0,56.0,30.06,NNE,13,5.0,10.0,75,0.00,,,0.00,,2013-09-16 00:22:00,
2013-09-15 21:12:00,60.0,57.0,30.06,NE,47,0.0,4.0,89,0.02,,,0.02,,2013-09-16 01:12:00,
2013-09-15 21:21:00,59.0,56.0,30.06,NE,47,1.0,3.0,91,0.02,,,0.02,,2013-09-16 01:21:00,
2013-09-15 21:42:00,59.0,57.0,30.06,NE,47,1.0,3.0,92,0.01,,,0.02,,2013-09-16 01:42:00,
2013-09-15 21:52:00,59.0,57.0,30.06,ENE,65,0.0,3.0,92,0.00,,,0.02,,2013-09-16 01:52:00,
2013-09-15 22:12:00,59.0,57.0,30.07,East,81,1.0,3.0,92,0.00,,,0.02,,2013-09-16 02:12:00,
2013-09-15 22:22:00,59.0,57.0,30.07,ENE,67,1.0,4.0,93,0.00,,,0.02,,2013-09-16 02:22:00,
2013-09-15 22:42:00,59.0,57.0,30.08,ENE,63,0.0,3.0,93,0.00,,,0.02,,2013-09-16 02:42:00,
2013-09-15 22:52:00,59.0,57.0,30.08,ENE,59,0.0,3.0,93,0.00,,,0.02,,2013-09-16 02:52:00,
2013-09-15 23:11:00,58.0,56.0,30.08,ENE,60,0.0,2.0,93,0.00,,,0.02,,2013-09-16 03:11:00,
2013-09-15 23:22:00,58.0,56.0,30.09,NE,37,0.0,2.0,92,0.00,,,0.02,,2013-09-16 03:22:00,
2013-09-15 23:45:00,58.0,56.0,30.08,NE,43,0.0,4.0,92,0.00,,,0.02,,2013-09-16 03:45:00,
2013-09-15 23:54:00,58.0,56.0,30.08,ENE,67,3.0,6.0,92,0.00,,,0.02,,2013-09-16 03:54:00,